Weather History for KL35 - April, 2013

Change the Weather History Date:

Friday, April 12, 2013

  Actual Average (KPSP) Record (KPSP)
Temperature  
Mean Temperature 45 °F 70 °F  
Max Temperature 60 °F 84 °F 103 °F (1990)
Min Temperature 30 °F 56 °F 36 °F (1927)
Degree Days  
Heating Degree Days 20 1  
Month to date heating degree days 12  
Since 1 July heating degree days 863  
Cooling Degree Days 0 6  
Month to date cooling degree days 62  
Year to date cooling degree days 182  
Moisture  
Dew Point 23 °F    
Average Humidity 45    
Maximum Humidity 70    
Minimum Humidity 20    
Precipitation  
Precipitation 0.00 in 0.00 in 0.30 in (1967)
Month to date precipitation 0.04  
Year to date precipitation 2.68  
Snow  
Snow 0.00 in - - ()
Month to date snowfall  
Since 1 July snowfall  
Snow Depth -    
Sea Level Pressure  
Sea Level Pressure 30.00 in    
Wind  
Wind Speed 2 mph (NE)    
Max Wind Speed 15 mph    
Max Gust Speed 20 mph    
Visibility 10 miles    
Events      
T = Trace of Precipitation, MM = Missing Value Source: NWS Daily Summary

Daily Weather History Graph

Daily Weather History Graph

Search for Another Location

Airport or City:

Trip Planner

Search our weather history database for the weather conditions in past years. The results will help you decide how hot, cold, wet, or windy it might be!

Date:

Astronomy

Apr. 12, 2013 Rise Set
Actual Time 6:19 AM PDT 7:17 PM PDT
Civil Twilight 5:53 AM PDT 7:42 PM PDT
Nautical Twilight 5:23 AM PDT 8:13 PM PDT
Astronomical Twilight 4:52 AM PDT 8:44 PM PDT
Moon 7:38 AM PDT (4/12) 9:45 PM PDT (4/12)
Length of Visible Light 13h 48m
Length of Day
12h 57m
Waxing Crescent, 6% of the Moon is Illuminated
Apr 12
Waxing Crescent
Apr 18
First Quarter
Apr 25
Full
May 2
Last Quarter
May 9
New

Hourly Weather History & Observations

Time (PDT) Temp. Dew Point Humidity Pressure Visibility Wind Dir Wind Speed Gust Speed Precip Events Conditions
12:15 AM 33.8 °F 23.0 °F 65% 29.96 in 10.0 mi Calm Calm - N/A   Clear
12:35 AM 33.8 °F 23.0 °F 65% 29.96 in 10.0 mi Calm Calm - N/A   Clear
12:55 AM 32.0 °F 23.0 °F 69% 29.97 in 10.0 mi Calm Calm - N/A   Clear
1:15 AM 32.0 °F 23.0 °F 69% 29.96 in 10.0 mi Calm Calm - N/A   Clear
1:35 AM 32.0 °F 23.0 °F 69% 29.96 in 10.0 mi Calm Calm - N/A   Clear
1:55 AM 32.0 °F 23.0 °F 69% 29.95 in 10.0 mi Calm Calm - N/A   Clear
2:15 AM 32.0 °F 21.2 °F 64% 29.95 in 10.0 mi Calm Calm - N/A   Clear
2:35 AM 32.0 °F 21.2 °F 64% 29.95 in 10.0 mi Calm Calm - N/A   Clear
2:55 AM 32.0 °F 21.2 °F 64% 29.95 in 10.0 mi Calm Calm - N/A   Clear
3:15 AM 32.0 °F 21.2 °F 64% 29.95 in 10.0 mi Calm Calm - N/A   Clear
3:35 AM 32.0 °F 21.2 °F 64% 29.95 in 10.0 mi Calm Calm - N/A   Clear
3:55 AM 32.0 °F 21.2 °F 64% 29.95 in 10.0 mi Calm Calm - N/A   Clear
4:15 AM 30.2 °F 21.2 °F 69% 29.94 in 10.0 mi Calm Calm - N/A   Clear
4:35 AM 30.2 °F 21.2 °F 69% 29.94 in 10.0 mi Calm Calm - N/A   Clear
4:55 AM 30.2 °F 21.2 °F 69% 29.95 in 10.0 mi Calm Calm - N/A   Clear
5:15 AM 30.2 °F 21.2 °F 69% 29.94 in 10.0 mi Calm Calm - N/A   Clear
5:35 AM 30.2 °F 21.2 °F 69% 29.94 in 10.0 mi Calm Calm - N/A   Clear
5:55 AM 30.2 °F 21.2 °F 69% 29.95 in 10.0 mi Calm Calm - N/A   Clear
6:15 AM 30.2 °F 21.2 °F 69% 29.95 in 10.0 mi Calm Calm - N/A   Clear
6:35 AM 30.2 °F 21.2 °F 69% 29.96 in 10.0 mi Calm Calm - N/A   Clear
6:55 AM 32.0 °F 21.2 °F 64% 29.97 in 10.0 mi Calm Calm - N/A   Clear
7:15 AM 32.0 °F 21.2 °F 64% 29.97 in 10.0 mi Calm Calm - N/A   Clear
7:55 AM 35.6 °F 26.6 °F 70% 29.98 in 10.0 mi Calm Calm - N/A   Clear
8:15 AM 39.2 °F 26.6 °F 61% 29.99 in 10.0 mi Calm Calm - N/A   Clear
8:35 AM 42.8 °F 28.4 °F 57% 30.00 in 10.0 mi Calm Calm - N/A   Clear
8:55 AM 46.4 °F 24.8 °F 43% 30.00 in 10.0 mi Calm Calm - N/A   Clear
9:15 AM 53.6 °F 23.0 °F 30% 30.00 in 10.0 mi NE 9.2 mph - N/A   Clear
9:35 AM 55.4 °F 21.2 °F 26% 30.00 in 10.0 mi ENE 9.2 mph - N/A   Clear
9:55 AM 55.4 °F 21.2 °F 26% 30.01 in 10.0 mi ENE 5.8 mph - N/A   Clear
10:15 AM 55.4 °F 21.2 °F 26% 30.02 in 10.0 mi ENE 8.1 mph - N/A   Clear
10:35 AM 57.2 °F 23.0 °F 27% 30.03 in 10.0 mi NNE 13.8 mph 18.4 mph N/A   Clear
10:55 AM 57.2 °F 23.0 °F 27% 30.03 in 10.0 mi ENE 8.1 mph 18.4 mph N/A   Clear
11:15 AM 57.2 °F 21.2 °F 25% 30.03 in 10.0 mi NNE 5.8 mph 16.1 mph N/A   Clear
11:35 AM 57.2 °F 23.0 °F 27% 30.03 in 10.0 mi NE 10.4 mph - N/A   Clear
11:55 AM 57.2 °F 23.0 °F 27% 30.03 in 10.0 mi North 6.9 mph 17.3 mph N/A   Clear
12:15 PM 59.0 °F 23.0 °F 25% 30.03 in 10.0 mi ENE 10.4 mph 17.3 mph N/A   Clear
12:35 PM 59.0 °F 23.0 °F 25% 30.03 in 10.0 mi NE 15.0 mph 18.4 mph N/A   Clear
12:55 PM 59.0 °F 23.0 °F 25% 30.03 in 10.0 mi NE 9.2 mph 19.6 mph N/A   Clear
1:15 PM 59.0 °F 21.2 °F 23% 30.03 in 10.0 mi NE 5.8 mph 9.2 mph N/A   Clear
1:35 PM 60.8 °F 21.2 °F 22% 30.02 in 10.0 mi ESE 8.1 mph - N/A   Clear
1:55 PM 60.8 °F 19.4 °F 20% 30.01 in 10.0 mi NW 3.5 mph - N/A   Clear
2:15 PM 60.8 °F 19.4 °F 20% 30.01 in 10.0 mi NNE 8.1 mph - N/A   Clear
2:35 PM 60.8 °F 19.4 °F 20% 30.00 in 10.0 mi ENE 9.2 mph - N/A   Clear
2:55 PM 60.8 °F 19.4 °F 20% 30.00 in 10.0 mi East 10.4 mph - N/A   Clear
3:15 PM 59.0 °F 19.4 °F 22% 29.99 in 10.0 mi ENE 9.2 mph - N/A   Clear
3:35 PM 59.0 °F 19.4 °F 22% 29.99 in 10.0 mi NE 11.5 mph 17.3 mph N/A   Clear
3:55 PM 59.0 °F 19.4 °F 22% 29.99 in 10.0 mi North 6.9 mph - N/A   Clear
4:15 PM 60.8 °F 19.4 °F 20% 29.99 in 10.0 mi Calm Calm - N/A   Clear
4:35 PM 60.8 °F 19.4 °F 20% 29.99 in 10.0 mi ENE 9.2 mph - N/A   Clear
4:55 PM 60.8 °F 19.4 °F 20% 29.98 in 10.0 mi East 3.5 mph - N/A   Scattered Clouds
5:15 PM 60.8 °F 19.4 °F 20% 29.99 in 10.0 mi NE 3.5 mph - N/A   Scattered Clouds
5:35 PM 60.8 °F 19.4 °F 20% 29.99 in 10.0 mi NW 3.5 mph - N/A   Scattered Clouds
5:55 PM 59.0 °F 24.8 °F 27% 29.99 in 10.0 mi West 6.9 mph - N/A   Clear
6:15 PM 57.2 °F 32.0 °F 38% 29.99 in 10.0 mi WSW 5.8 mph - N/A   Clear
6:35 PM 55.4 °F 28.4 °F 36% 29.99 in 10.0 mi WSW 3.5 mph - N/A   Clear
6:55 PM 53.6 °F 30.2 °F 41% 30.00 in 10.0 mi SW 5.8 mph - N/A   Clear
7:15 PM 53.6 °F 26.6 °F 35% 30.00 in 10.0 mi WSW 4.6 mph - N/A   Clear
7:35 PM 51.8 °F 32.0 °F 47% 30.01 in 10.0 mi West 5.8 mph - N/A   Clear
7:55 PM 50.0 °F 30.2 °F 47% 30.02 in 10.0 mi West 4.6 mph - N/A   Clear
8:15 PM 48.2 °F 28.4 °F 46% 30.03 in 10.0 mi Calm Calm - N/A   Clear
8:35 PM 46.4 °F 28.4 °F 50% 30.03 in 10.0 mi Calm Calm - N/A   Clear
8:55 PM 44.6 °F 28.4 °F 53% 30.04 in 10.0 mi Calm Calm - N/A   Clear
9:15 PM 42.8 °F 26.6 °F 53% 30.04 in 10.0 mi Calm Calm - N/A   Clear
9:35 PM 42.8 °F 26.6 °F 53% 30.05 in 10.0 mi Calm Calm - N/A   Clear
9:55 PM 41.0 °F 26.6 °F 57% 30.05 in 10.0 mi Calm Calm - N/A   Clear
10:15 PM 41.0 °F 24.8 °F 53% 30.06 in 10.0 mi Calm Calm - N/A   Clear
10:35 PM 39.2 °F 24.8 °F 56% 30.06 in 10.0 mi Calm Calm - N/A   Clear
10:55 PM 39.2 °F 23.0 °F 52% 30.06 in 10.0 mi Calm Calm - N/A   Clear
11:15 PM 39.2 °F 23.0 °F 52% 30.06 in 10.0 mi Calm Calm - N/A   Clear
11:35 PM 39.2 °F 23.0 °F 52% 30.06 in 10.0 mi Calm Calm - N/A   Clear
11:55 PM 39.2 °F 23.0 °F 52% 30.06 in 10.0 mi Calm Calm - N/A   Clear